TimeEST,TemperatureF,Dew PointF,Humidity,Sea Level PressureIn,VisibilityMPH,Wind Direction,Wind SpeedMPH,Gust SpeedMPH,PrecipitationIn,Events,Conditions,WindDirDegrees,DateUTC
12:53 AM,55.9,52.0,87,30.25,10.0,Calm,Calm,-,N/A,,Overcast,0,2012-11-12 05:53:00
1:53 AM,60.1,54.0,80,30.23,10.0,SSE,8.1,-,N/A,,Clear,150,2012-11-12 06:53:00
2:53 AM,61.0,55.0,81,30.21,10.0,SE,10.4,-,N/A,,Clear,140,2012-11-12 07:53:00
3:53 AM,61.0,55.0,81,30.21,10.0,SSE,8.1,-,N/A,,Overcast,160,2012-11-12 08:53:00
4:53 AM,60.1,55.0,83,30.20,10.0,SSE,5.8,-,N/A,,Mostly Cloudy,150,2012-11-12 09:53:00
5:53 AM,60.1,55.9,86,30.22,10.0,South,5.8,-,N/A,,Overcast,170,2012-11-12 10:53:00
6:06 AM,60.8,55.4,82,30.24,10.0,SSE,6.9,-,N/A,,Overcast,160,2012-11-12 11:06:00
6:42 AM,60.8,55.4,82,30.24,10.0,SSE,6.9,-,N/A,,Overcast,150,2012-11-12 11:42:00
6:53 AM,60.8,55.4,82,30.24,10.0,SE,8.1,-,N/A,,Overcast,140,2012-11-12 11:53:00
7:53 AM,61.0,57.0,87,30.25,10.0,South,5.8,-,N/A,,Overcast,170,2012-11-12 12:53:00
8:07 AM,60.8,57.2,88,30.26,10.0,South,6.9,-,N/A,,Overcast,170,2012-11-12 13:07:00
8:53 AM,62.1,57.0,84,30.25,10.0,SE,4.6,-,N/A,,Overcast,140,2012-11-12 13:53:00
9:48 AM,62.6,57.2,82,30.25,10.0,SSE,6.9,-,N/A,,Mostly Cloudy,150,2012-11-12 14:48:00
9:53 AM,63.0,57.9,84,30.24,10.0,SSE,6.9,-,N/A,,Overcast,150,2012-11-12 14:53:00
10:53 AM,61.0,60.1,97,30.24,4.0,South,4.6,-,0.06,Rain,Light Rain,190,2012-11-12 15:53:00
11:53 AM,62.1,61.0,96,30.19,5.0,South,8.1,-,0.09,Rain,Light Rain,170,2012-11-12 16:53:00
12:53 PM,63.0,62.1,97,30.18,6.0,WSW,3.5,-,0.01,Rain,Light Rain,240,2012-11-12 17:53:00
1:53 PM,63.0,63.0,100,30.17,6.0,Calm,Calm,-,0.03,,Overcast,0,2012-11-12 18:53:00
2:31 PM,62.6,62.6,100,30.17,1.8,Calm,Calm,-,0.02,Rain,Rain,0,2012-11-12 19:31:00
2:53 PM,62.1,62.1,100,30.16,1.5,West,5.8,-,0.07,Rain,Light Rain,270,2012-11-12 19:53:00
3:08 PM,60.8,59.0,94,30.18,3.0,WNW,11.5,19.6,0.05,Rain,Light Rain,300,2012-11-12 20:08:00
3:17 PM,57.2,57.2,100,30.19,4.0,NW,12.7,23.0,0.05,Rain,Light Rain,310,2012-11-12 20:17:00
3:35 PM,57.2,55.4,94,30.20,4.0,NW,10.4,18.4,N/A,Rain,Light Rain,310,2012-11-12 20:35:00
3:53 PM,55.9,55.9,100,30.19,6.0,Variable,4.6,-,0.08,Rain,Light Rain,0,2012-11-12 20:53:00
4:08 PM,55.4,55.4,100,30.21,10.0,Variable,3.5,-,0.00,,Overcast,0,2012-11-12 21:08:00
4:43 PM,55.4,53.6,94,30.23,2.5,NW,8.1,-,0.02,Rain,Light Rain,320,2012-11-12 21:43:00
4:47 PM,55.4,53.6,94,30.23,3.0,NNW,5.8,-,0.02,Rain,Light Rain,330,2012-11-12 21:47:00
4:53 PM,55.0,54.0,96,30.23,4.0,NW,11.5,17.3,0.02,Rain,Light Rain,320,2012-11-12 21:53:00
5:09 PM,53.6,51.8,94,30.25,10.0,NW,9.2,-,N/A,,Overcast,310,2012-11-12 22:09:00
5:19 PM,53.6,51.8,94,30.26,10.0,NW,8.1,-,0.00,,Overcast,310,2012-11-12 22:19:00
5:53 PM,53.1,52.0,96,30.26,5.0,NNE,4.6,-,0.01,Rain,Rain,20,2012-11-12 22:53:00
6:00 PM,53.6,53.6,100,30.27,4.0,NNE,3.5,-,0.01,Rain,Light Rain,20,2012-11-12 23:00:00
6:36 PM,51.8,48.2,88,30.28,10.0,North,8.1,-,0.02,Rain,Light Rain,360,2012-11-12 23:36:00
6:53 PM,52.0,50.0,93,30.28,10.0,North,4.6,-,0.02,,Overcast,350,2012-11-12 23:53:00
7:53 PM,50.0,46.9,89,30.30,10.0,NNW,5.8,-,N/A,,Overcast,340,2012-11-13 00:53:00
8:53 PM,48.0,45.0,89,30.32,10.0,NNW,9.2,-,N/A,,Overcast,330,2012-11-13 01:53:00
9:53 PM,46.0,39.9,79,30.34,10.0,North,9.2,-,N/A,,Overcast,350,2012-11-13 02:53:00
10:53 PM,42.1,36.0,79,30.35,10.0,North,11.5,-,N/A,,Clear,350,2012-11-13 03:53:00
11:53 PM,39.9,34.0,79,30.35,10.0,North,9.2,-,N/A,,Clear,350,2012-11-13 04:53:00